GW4941 Weather Reports


Display with metric or nautical units.
time (UTC)temp
F
wind
direction
speed
MPH
gust
MPH
rain 1hr
in
rain 24hr
in
rain mn
in
humidity
%
barometer
mb
20260507012437 54 192 0.0 0.0 0.00 0.62 0.62 97 1014.0
20260507011935 54 192 0.0 0.0 0.00 0.62 0.62 97 1013.9
20260507011432 54 192 0.0 0.0 0.00 0.62 0.62 96 1014.0
20260507010931 54 192 0.0 0.0 0.00 0.62 0.62 96 1014.0
20260507010426 54 192 0.0 0.0 0.00 0.62 0.62 96 1013.7
20260507005924 54 192 0.0 0.0 0.00 0.62 0.62 96 1014.0
20260507005421 54 192 0.0 0.0 0.00 0.62 0.62 96 1014.1
20260507004917 54 192 0.0 0.0 0.00 0.62 0.62 96 1014.2
20260507004414 54 192 0.0 0.0 0.00 0.62 0.62 96 1013.9
20260507003911 54 192 0.0 0.0 0.00 0.62 0.62 96 1013.7
20260507003406 55 193 0.0 0.0 0.00 0.62 0.62 96 1013.8
20260507002902 55 193 0.0 0.0 0.00 0.62 0.62 96 1013.9
20260507002358 55 192 0.0 0.0 0.00 0.62 0.62 95 1013.6
20260507001856 55 192 0.0 0.0 0.00 0.62 0.62 95 1013.9
20260507001352 55 193 0.0 0.0 0.00 0.62 0.62 95 1013.7
20260507000849 55 193 0.0 0.0 0.00 0.62 0.62 95 1013.6
20260507000344 55 193 0.0 0.0 0.00 0.62 0.62 95 1013.7
20260506235841 55 192 0.0 0.0 0.00 0.62 0.62 95 1013.4
20260506235338 55 193 0.0 0.0 0.00 0.62 0.62 95 1013.2
20260506234834 55 193 0.0 0.0 0.00 0.62 0.62 94 1013.1
20260506234332 55 195 0.0 0.0 0.00 0.62 0.62 94 1013.5
20260506233829 55 195 0.0 0.0 0.00 0.62 0.62 94 1013.8
20260506233325 55 195 0.0 0.0 0.00 0.62 0.62 93 1013.9
20260506232822 55 195 0.0 0.0 0.00 0.62 0.62 93 1014.1
20260506232317 55 195 0.0 0.0 0.00 0.62 0.62 93 1013.9
20260506231814 56 195 0.0 0.0 0.00 0.62 0.62 93 1013.8
20260506231312 56 195 0.0 0.0 0.00 0.62 0.62 92 1013.7
20260506230810 56 195 0.0 0.0 0.00 0.62 0.62 92 1013.6
20260506230306 56 189 0.0 0.0 0.00 0.62 0.62 92 1013.8
20260506225802 56 189 0.0 2.0 0.00 0.62 0.62 91 1014.0
20260506225300 56 127 0.0 0.0 0.00 0.62 0.62 91 1013.7
20260506224756 56 201 1.0 1.0 0.00 0.62 0.62 91 1013.6
20260506224254 56 211 0.0 0.0 0.00 0.62 0.62 91 1013.6
20260506223750 56 211 0.0 0.0 0.00 0.62 0.62 90 1013.8
20260506223246 56 211 0.0 1.0 0.00 0.62 0.62 90 1013.7
20260506222743 56 211 1.0 1.0 0.00 0.62 0.62 89 1013.9
20260506222238 56 206 0.0 1.0 0.00 0.62 0.62 89 1013.6
20260506221736 57 53 0.0 0.0 0.00 0.62 0.62 91 1013.6
20260506221234 57 53 0.0 0.0 0.00 0.62 0.62 91 1013.4
20260506220726 56 53 1.0 3.0 0.00 0.62 0.62 90 1013.3
20260506220225 57 202 0.0 0.0 0.00 0.62 0.62 89 1013.1
20260506215722 57 214 0.0 2.0 0.00 0.62 0.62 88 1013.2
20260506215218 57 214 0.0 0.0 0.00 0.62 0.62 87 1013.3
20260506214715 57 213 0.0 2.0 0.00 0.62 0.62 88 1013.1
20260506214212 57 214 1.0 2.0 0.00 0.62 0.62 86 1013.1
20260506213710 57 204 0.0 1.0 0.00 0.62 0.62 87 1013.3
20260506213208 57 213 0.0 3.0 0.00 0.62 0.62 88 1013.3
20260506212704 57 213 0.0 1.0 0.00 0.62 0.62 86 1013.0
20260506212200 58 216 2.0 3.0 0.00 0.62 0.62 86 1013.1
20260506211655 58 330 0.0 0.0 0.00 0.62 0.62 84 1013.0
20260506211152 57 343 0.0 0.0 0.00 0.62 0.62 86 1012.9
20260506210649 57 343 0.0 0.0 0.00 0.62 0.62 87 1013.2
20260506210146 57 343 1.0 1.0 0.00 0.62 0.62 87 1013.2
20260506205643 57 343 0.0 0.0 0.00 0.62 0.62 87 1013.1
20260506205138 56 337 0.0 3.0 0.00 0.62 0.62 87 1013.3
20260506204636 57 212 0.0 2.0 0.00 0.62 0.62 85 1013.0
20260506204132 57 232 0.0 0.0 0.00 0.62 0.62 86 1012.8
20260506203631 56 233 0.0 0.0 0.00 0.62 0.62 87 1012.9
20260506203127 56 230 2.0 2.0 0.00 0.62 0.62 88 1012.7
20260506202625 56 141 3.0 3.0 0.00 0.62 0.62 88 1012.7
20260506202121 56 349 0.0 3.0 0.00 0.62 0.62 89 1012.9
20260506201618 56 90 1.0 1.0 0.00 0.62 0.62 89 1013.0
20260506201115 56 339 0.0 2.0 0.00 0.62 0.62 89 1012.8
20260506200611 56 352 1.0 2.0 0.00 0.62 0.62 90 1012.6
20260506200108 56 320 0.0 4.0 0.00 0.62 0.62 90 1012.9
20260506195605 56 273 1.0 4.0 0.00 0.62 0.62 91 1012.7
20260506195102 56 282 3.0 3.0 0.00 0.62 0.62 91 1012.7
20260506194559 56 350 0.0 0.0 0.00 0.62 0.62 90 1012.6
20260506194055 56 350 0.0 0.0 0.00 0.62 0.62 91 1012.8
20260506193553 55 350 0.0 0.0 0.00 0.62 0.62 91 1012.5
20260506193050 55 349 1.0 1.0 0.00 0.62 0.62 92 1012.5
20260506192547 55 292 0.0 2.0 0.00 0.62 0.62 91 1012.1
20260506192042 55 291 0.0 2.0 0.00 0.62 0.62 92 1012.4
20260506191539 55 297 2.0 2.0 0.00 0.62 0.62 92 1012.7
20260506191035 55 310 0.0 2.0 0.00 0.62 0.62 92 1012.5
20260506190533 55 223 0.0 2.0 0.00 0.62 0.62 92 1012.5
20260506190030 55 319 2.0 6.0 0.00 0.62 0.62 92 1012.6
20260506185527 55 297 0.0 2.0 0.00 0.62 0.62 92 1012.6
20260506185023 56 289 1.0 1.0 0.00 0.62 0.62 91 1012.6
20260506184521 56 319 1.0 4.0 0.00 0.62 0.62 91 1012.6
20260506184018 56 107 2.0 4.0 0.00 0.62 0.62 91 1012.5
20260506183513 56 79 2.0 6.0 0.00 0.62 0.62 92 1012.6
20260506183011 55 323 0.0 6.0 0.00 0.62 0.62 92 1012.4
20260506182508 55 341 1.0 2.0 0.00 0.62 0.62 93 1012.2
20260506182005 55 311 2.0 3.0 0.00 0.62 0.62 94 1012.4
20260506181503 56 275 4.0 4.0 0.00 0.62 0.62 93 1012.0
20260506180959 56 0 2.0 2.0 0.00 0.62 0.62 94 1012.4
20260506180456 56 47 0.0 2.0 0.00 0.62 0.62 93 1012.2
20260506175952 56 352 0.0 2.0 0.00 0.62 0.62 93 1011.9
20260506175449 56 256 1.0 6.0 0.00 0.62 0.62 93 1012.2
20260506174946 56 197 2.0 4.0 0.00 0.62 0.62 93 1012.2
20260506174444 57 268 4.0 6.0 0.00 0.62 0.62 94 1012.2
20260506173940 56 280 2.0 3.0 0.00 0.62 0.62 94 1012.1
20260506173438 56 282 2.0 4.0 0.00 0.62 0.62 95 1012.1
20260506172934 56 275 3.0 3.0 0.00 0.62 0.62 95 1011.9
20260506172432 56 331 2.0 3.0 0.00 0.62 0.62 96 1012.0
20260506171928 56 322 5.0 8.0 0.00 0.62 0.62 96 1012.2
20260506171426 56 329 4.0 6.0 0.00 0.62 0.62 96 1012.0
20260506170923 56 276 2.0 4.0 0.00 0.62 0.62 96 1012.0
20260506170419 56 117 1.0 3.0 0.00 0.62 0.62 96 1011.9
20260506165918 56 266 0.0 0.0 0.00 0.62 0.62 97 1012.1
20260506165416 56 308 0.0 4.0 0.00 0.62 0.62 97 1012.1
20260506164912 55 293 3.0 4.0 0.00 0.62 0.62 97 1011.9
20260506164409 56 355 2.0 3.0 0.00 0.62 0.62 97 1012.1
20260506163908 55 116 2.0 3.0 0.00 0.62 0.62 97 1012.2
20260506163407 55 312 1.0 2.0 0.00 0.62 0.62 98 1012.1
20260506162902 56 340 0.0 3.0 0.00 0.62 0.62 98 1012.0
20260506162400 56 330 0.0 4.0 0.00 0.62 0.62 98 1011.9
20260506161857 56 318 1.0 4.0 0.00 0.62 0.62 98 1011.7
20260506161355 57 12 0.0 3.0 0.00 0.62 0.62 98 1012.0
20260506160853 57 230 0.0 2.0 0.00 0.62 0.62 98 1011.8
20260506160350 57 333 4.0 7.0 0.00 0.62 0.62 98 1011.7
20260506155848 57 124 0.0 3.0 0.00 0.62 0.62 98 1011.4
20260506155344 58 116 3.0 8.0 0.00 0.62 0.62 98 1011.2
20260506153456 60 188 1.0 4.0 0.07 0.62 0.62 99 1010.7
20260506152953 59 108 0.0 3.0 0.05 0.61 0.61 99 1010.5
20260506152450 59 185 0.0 2.0 0.05 0.61 0.61 99 1010.7
20260506151949 59 122 2.0 2.0 0.00 0.60 0.60 99 1010.6
20260506151445 59 51 0.0 1.0 0.00 0.60 0.60 99 1010.4
20260506150943 59 31 0.0 0.0 0.00 0.60 0.60 99 1010.6
20260506150439 59 25 0.0 0.0 0.00 0.60 0.60 99 1010.5
20260506145936 59 25 0.0 0.0 0.00 0.60 0.60 99 1010.5
20260506145432 59 25 0.0 1.0 0.07 0.60 0.60 99 1010.2
20260506144930 59 144 0.0 1.0 0.00 0.59 0.59 99 1010.3
20260506144426 59 154 0.0 0.0 0.00 0.59 0.59 99 1010.1
20260506143925 59 97 0.0 0.0 0.00 0.59 0.59 99 1010.1
20260506143421 59 97 0.0 0.0 0.00 0.59 0.59 99 1010.1
20260506142920 59 97 0.0 0.0 0.05 0.59 0.59 99 1010.1
20260506142418 59 85 0.0 0.0 0.05 0.59 0.59 99 1010.0
20260506141915 59 85 0.0 3.0 0.00 0.58 0.58 99 1009.9
20260506141413 59 190 0.0 0.0 0.00 0.58 0.58 99 1009.9
20260506140911 59 97 1.0 1.0 0.00 0.58 0.58 99 1009.7
20260506140408 59 220 2.0 4.0 0.00 0.58 0.58 99 1009.7
20260506135905 59 193 2.0 3.0 0.00 0.58 0.58 99 1009.3
20260506135402 59 139 1.0 3.0 0.07 0.58 0.58 99 1009.3
20260506134858 58 72 0.0 3.0 0.07 0.58 0.58 99 1009.3
20260506134354 58 100 1.0 2.0 0.00 0.57 0.57 99 1009.4
20260506133851 58 184 2.0 2.0 0.05 0.57 0.57 99 1009.5
20260506133348 58 151 2.0 3.0 0.05 0.57 0.57 99 1009.4
20260506132844 58 109 0.0 2.0 0.00 0.56 0.56 99 1009.3
20260506132342 58 118 0.0 2.0 0.00 0.56 0.56 99 1009.4
20260506131840 58 76 0.0 4.0 0.00 0.56 0.56 99 1009.5
20260506131336 58 242 0.0 1.0 0.00 0.56 0.56 99 1009.6
20260506130833 58 80 2.0 2.0 0.00 0.56 0.56 99 1009.5
20260506130329 58 63 0.0 4.0 0.00 0.56 0.56 99 1009.5
20260506125827 58 142 0.0 3.0 0.00 0.56 0.56 99 1009.5
20260506125325 58 89 1.0 3.0 0.00 0.56 0.56 99 1009.4
20260506124824 58 88 0.0 0.0 0.00 0.56 0.56 99 1009.1
20260506124320 58 88 0.0 0.0 0.00 0.56 0.56 99 1009.1
20260506123818 58 90 0.0 2.0 0.00 0.56 0.56 99 1009.1
20260506123316 58 67 1.0 3.0 0.00 0.56 0.56 99 1009.2
20260506122813 58 210 1.0 4.0 0.00 0.56 0.56 99 1009.2
20260506122310 57 56 0.0 2.0 0.00 0.56 0.56 99 1009.1
20260506121808 57 99 0.0 3.0 0.00 0.56 0.56 99 1009.2
20260506121304 57 270 2.0 8.0 0.00 0.56 0.56 99 1009.3
20260506120802 57 105 0.0 2.0 0.00 0.56 0.56 99 1009.0
20260506120259 57 106 0.0 0.0 0.00 0.56 0.56 99 1009.0
20260506115757 57 70 2.0 4.0 0.07 0.56 0.56 99 1009.3
20260506115255 57 63 0.0 0.0 0.07 0.56 0.56 99 1009.0
20260506114753 57 63 0.0 0.0 0.00 0.55 0.55 99 1009.1
20260506114250 57 63 0.0 0.0 0.00 0.55 0.55 99 1009.2
20260506113749 57 63 0.0 1.0 0.00 0.55 0.55 99 1009.1
20260506113246 56 62 0.0 0.0 0.07 0.55 0.55 99 1009.1
20260506112742 56 61 0.0 1.0 0.12 0.55 0.55 99 1009.1
20260506112240 56 62 0.0 0.0 0.05 0.54 0.54 99 1008.9
20260506111737 56 62 0.0 0.0 0.00 0.53 0.53 99 1009.0
20260506111235 56 62 0.0 0.0 0.07 0.53 0.53 99 1008.8
20260506110731 56 62 0.0 0.0 0.07 0.53 0.53 99 1008.9
20260506110229 56 62 0.0 0.0 0.05 0.52 0.52 99 1009.0
20260506105725 56 62 0.0 0.0 0.05 0.52 0.52 99 1008.8
20260506105222 56 62 0.0 0.0 0.07 0.51 0.51 99 1008.9
20260506104721 56 61 0.0 0.0 0.12 0.51 0.51 99 1008.8
20260506104218 56 61 0.0 0.0 0.17 0.50 0.50 99 1008.6
20260506103715 56 60 0.0 0.0 0.12 0.48 0.48 99 1008.6
20260506103212 56 60 0.0 0.0 0.24 0.47 0.47 99 1008.5
20260506102710 56 60 0.0 0.0 0.17 0.46 0.46 99 1008.5
20260506102208 56 59 0.0 0.0 0.00 0.43 0.43 99 1008.3
20260506101704 56 59 0.0 0.0 0.07 0.43 0.43 99 1008.5
20260506101201 56 59 0.0 0.0 0.07 0.43 0.43 99 1008.5
20260506100659 56 59 0.0 1.0 0.07 0.42 0.42 99 1008.3
20260506100157 56 57 0.0 0.0 0.12 0.41 0.41 99 1008.5
20260506095655 56 33 0.0 1.0 0.17 0.41 0.41 99 1008.6
20260506095151 56 216 0.0 0.0 0.17 0.39 0.39 99 1008.6
20260506094649 56 216 0.0 0.0 0.05 0.37 0.37 99 1008.6
20260506094147 57 217 0.0 0.0 0.07 0.36 0.36 99 1008.3
20260506093645 57 218 0.0 0.0 0.05 0.35 0.35 99 1008.5
20260506093142 57 218 0.0 2.0 0.05 0.35 0.35 99 1008.5
20260506092640 57 189 0.0 0.0 0.07 0.34 0.34 99 1008.7
20260506092136 57 189 0.0 0.0 0.19 0.34 0.34 99 1009.1
20260506091634 57 189 0.0 0.0 0.17 0.33 0.33 99 1009.4
20260506091132 57 189 0.0 0.0 0.19 0.31 0.31 99 1009.4
20260506090630 57 189 0.0 0.0 0.19 0.30 0.30 99 1009.3
20260506090126 57 189 0.0 0.0 0.12 0.28 0.28 99 1009.4
20260506085623 57 189 0.0 0.0 0.19 0.27 0.27 99 1009.3
20260506085119 57 189 0.0 0.0 0.17 0.26 0.26 99 1009.5
20260506084616 57 189 0.0 0.0 0.66 0.24 0.24 99 1009.5
20260506084112 57 189 0.0 0.0 0.90 0.22 0.22 99 1009.6
20260506083609 57 193 0.0 0.0 0.40 0.13 0.13 99 1009.7
20260506083107 57 194 1.0 2.0 0.12 0.07 0.07 99 1009.9
20260506082603 57 17 0.0 0.0 0.07 0.06 0.06 99 1009.5
20260506082059 57 10 0.0 0.0 0.00 0.05 0.05 99 1009.1
20260506081557 57 10 0.0 0.0 0.07 0.05 0.05 99 1008.9
20260506081054 57 10 0.0 0.0 0.07 0.05 0.05 99 1008.8
20260506080552 57 10 0.0 0.0 0.00 0.04 0.04 99 1008.9
20260506073032 57 10 0.0 0.0 0.07 0.03 0.03 98 1008.8
20260506072530 57 10 0.0 0.0 0.07 0.03 0.03 98 1008.7
20260506072027 57 10 0.0 0.0 0.00 0.02 0.02 98 1008.9
20260506071525 57 10 0.0 0.0 0.00 0.02 0.02 98 1009.0
20260506071022 57 10 0.0 0.0 0.00 0.02 0.02 98 1009.0
20260506070519 57 10 0.0 0.0 0.05 0.02 0.02 98 1008.9
20260506062457 57 10 0.0 0.0 0.00 0.01 0.01 98 1008.7
20260506061953 57 10 0.0 0.0 0.00 0.01 0.01 97 1008.9
20260506061449 57 10 0.0 0.0 0.00 0.01 0.01 97 1008.9
20260506060947 57 10 0.0 0.0 0.00 0.01 0.01 97 1009.0
20260506060445 57 10 0.0 0.0 0.00 0.01 0.01 97 1009.1
20260506050914 57 13 0.0 0.0 0.00 0.01 0.01 96 1009.7
20260506050412 57 13 0.0 0.0 0.00 0.01 0.01 95 1010.1
20260506044902 58 18 0.0 0.0 0.00 0.01 0.01 94 1010.2
20260506044400 58 18 0.0 0.0 0.00 0.01 0.01 93 1010.0
20260506043857 58 18 0.0 0.0 0.07 0.01 0.01 93 1010.2
20260506043354 58 18 0.0 0.0 0.00 0.00 0.00 92 1010.0
20260506042852 58 18 0.0 0.0 0.00 0.00 0.00 92 1010.2
20260506042351 58 18 0.0 0.0 0.00 0.00 0.00 91 1010.4
20260506041849 59 19 0.0 0.0 0.00 0.00 0.00 91 1010.2
20260506041346 59 19 0.0 0.0 0.00 0.00 0.00 89 1010.2
20260506040843 59 19 0.0 0.0 0.00 0.00 0.00 87 1010.5
20260506040340 60 19 0.0 0.0 0.00 0.00 0.00 86 1010.7
20260506035836 60 19 0.0 0.0 0.00 0.00 0.00 85 1010.6
20260506035334 60 19 0.0 0.0 0.00 0.00 0.00 84 1010.5
20260506034831 60 19 0.0 0.0 0.00 0.00 0.00 83 1010.4
20260506034328 60 19 0.0 0.0 0.00 0.00 0.00 81 1009.9
20260506033825 60 19 0.0 0.0 0.00 0.00 0.00 82 1009.9
20260506033322 60 19 0.0 0.0 0.00 0.00 0.00 80 1010.0
20260506032819 60 19 0.0 0.0 0.00 0.00 0.00 80 1010.1
20260506032316 60 19 0.0 0.0 0.00 0.00 0.00 80 1010.0
20260506031813 61 19 0.0 0.0 0.00 0.00 0.00 80 1010.1
20260506031310 61 19 0.0 0.0 0.00 0.00 0.00 80 1010.1
20260506030808 61 20 1.0 1.0 0.00 0.00 0.00 81 1010.5
20260506030306 61 20 1.0 2.0 0.00 0.00 0.00 79 1010.3
20260506025802 61 31 0.0 0.0 0.00 0.00 0.00 78 1010.0
20260506025258 62 34 1.0 2.0 0.00 0.00 0.00 76 1009.8
20260506024755 62 34 0.0 2.0 0.00 0.00 0.00 77 1009.9
20260506024252 62 39 0.0 0.0 0.00 0.00 0.00 75 1009.9
20260506023748 62 39 0.0 1.0 0.00 0.00 0.00 77 1009.9
20260506023246 62 25 0.0 2.0 0.00 0.00 0.00 77 1009.9
20260506022742 62 40 1.0 1.0 0.00 0.00 0.00 75 1009.8
20260506022240 62 40 0.0 0.0 0.00 0.00 0.00 74 1009.7
20260506021738 62 40 0.0 0.0 0.00 0.00 0.00 74 1009.9
20260506021234 63 40 0.0 0.0 0.00 0.00 0.00 71 1010.0
20260506020731 63 40 0.0 0.0 0.00 0.00 0.00 74 1010.1
20260506020229 63 40 0.0 1.0 0.00 0.00 0.00 71 1010.6
20260506015727 63 40 0.0 2.0 0.00 0.00 0.00 71 1010.5
20260506015224 64 44 1.0 2.0 0.00 0.00 0.00 71 1010.4
20260506014721 64 46 0.0 0.0 0.00 0.00 0.00 71 1010.2
20260506014217 64 46 0.0 1.0 0.00 0.00 0.00 68 1010.4
20260506013714 65 51 0.0 0.0 0.00 0.00 0.00 66 1010.2
20260506013212 66 51 0.0 0.0 0.00 0.00 0.00 63 1010.0